SCP
0 0 0 0 0 0 0 0 0 0 0 -0 -0 -0 0 0 0 0 0 0 0 0 0 0 0 0 0 -0 -0 -0 0 0 0 0 0 0 0 0 0 0 0 0 0 0
0 0 0 0 0 0 0 0 0 0 0 0 0 0 0 0 0 0 0 0 0 0 0 0 0 0 0 -0 -0 -0 0 0 0 0 0 0 0 0 0 0 0 0 0 0
0 0 0 0 0 0 0 0 0 0 0 0 0 0 0 0 0 0 0 0 0 0 0 0 0 0 0 -0 -0 -0 0 0 0 0 0 0 0 0 0 0 0 0 0 0
0 0 0 0 0 0 0 0 0 0 0 0 0 0 0 0 0 0 0 0 0 0 0 0 0 0 0 0 -0 -0 0 0 0 0 0 0 0 0 0 0 0 0 0 0
0 0 0 0 0 0 0 0 0 0 0 0 0 0 0 0 0 0 0 0 0 1 1 1 0 0 0 -0 -0 0 0 0 0 0 0 0 0 0 0 0 0 0 0 0
0 0 0 0 0 0 0 0 0 0 0 0 0 0 0 0 0 0 1 1 1 1 1 0 0 0 0 0 0 0 0 0 0 0 0 0 0 0 0 0 0 0 0 0
0 0 0 0 0 0 0 0 0 0 0 0 0 0 0 0 0 0 1 1 1 1 0 0 0 0 0 0 0 0 0 0 0 0 0 0 0 0 0 0 0 0 0 0
0 0 0 0 0 0 0 0 0 0 0 0 0 0 0 0 0 0 1 1 1 0 0 0 0 0 0 0 0 0 0 0 0 0 0 0 0 0 0 0 0 0 0 0
0 0 0 0 0 0 0 0 0 0 0 0 0 0 0 0 0 0 1 1 1 0 0 0 0 0 0 0 0 0 0 0 0 0 0 0 0 0 0 0 0 0 0 0
0 0 0 0 0 0 0 0 0 0 0 0 0 0 0 0 0 0 1 1 0 0 0 0 0 0 0 0 0 0 0 0 0 0 0 0 0 0 0 0 0 0 0 0
0 0 0 0 0 0 0 0 0 0 0 0 0 0 0 0 0 0 0 0 0 0 0 0 0 0 0 0 0 0 0 0 0 0 0 0 0 0 0 0 0 0 0 0
0 0 0 0 0 0 0 0 0 0 0 0 0 0 0 0 0 0 0 0 0 0 0 0 0 0 0 0 0 0 0 0 0 0 0 0 0 0 0 0 0 0 0 0
0 0 0 0 0 0 0 0 0 0 0 0 0 0 0 0 0 0 0 0 0 0 0 0 0 0 0 0 0 0 0 0 0 0 0 0 0 0 0 0 0 0 0 0
0 0 0 0 0 0 0 0 0 0 0 0 0 0 0 0 0 0 0 0 0 0 0 0 0 0 0 0 0 0 0 0 0 0 0 0 0 0 0 0 0 0 0 0
0 0 0 0 0 0 0 0 0 0 0 0 0 0 0 0 0 0 0 0 0 0 0 0 0 0 0 0 0 0 0 0 0 0 0 0 0 0 0 0 0 0 0 0
0 0 0 0 0 0 0 0 0 0 0 0 0 0 0 0 0 0 0 0 0 0 0 0 0 0 0 0 0 0 0 0 0 0 0 0 0 0 0 0 0 0 0 0
0 0 0 0 0 0 0 0 0 0 0 0 0 0 0 0 0 0 0 0 0 0 0 0 0 0 0 0 0 0 0 0 0 0 0 0 0 0 0 0 0 0 0 0
0 0 0 0 0 0 0 0 0 0 0 0 0 0 0 0 0 0 0 0 0 0 0 0 0 0 0 0 0 0 0 0 0 0 0 0 0 0 0 0 0 0 0 0
0 0 0 0 0 0 0 0 0 0 0 0 0 0 0 0 0 0 0 0 0 0 0 0 0 0 0 0 0 0 0 0 0 0 0 0 0 0 0 0 0 0 0 0
0 0 0 0 0 0 0 0 0 0 0 0 0 0 0 0 0 0 0 0 0 0 0 0 0 0 0 0 0 0 0 0 0 0 0 0 0 0 0 0 0 0 0 0
0 0 0 0 0 0 0 0 0 0 0 0 0 0 0 0 0 0 0 0 0 0 0 0 0 0 0 0 0 0 0 0 0 0 0 0 0 0 0 0 0 0 0 0
0 0 0 0 0 0 0 0 0 0 0 0 0 0 0 0 0 0 0 0 0 0 0 0 0 0 0 0 0 0 0 0 0 0 0 0 0 0 0 0 0 0 0 0
0 0 0 0 0 0 0 0 0 0 0 0 0 0 0 0 0 0 0 0 0 0 0 0 0 0 0 0 0 0 0 0 0 0 0 0 0 0 0 0 0 0 0 0
0 0 0 0 0 0 0 0 0 0 0 0 0 0 0 0 0 0 0 0 0 0 0 0 0 0 0 0 0 0 0 0 0 0 0 0 0 0 0 0 0 0 0 0
0 0 0 0 0 0 0 0 0 0 0 0 0 0 0 0 0 0 0 0 0 0 0 0 0 0 0 0 0 0 0 0 0 0 0 0 0 0 0 0 0 0 0 0
0 0 0 0 0 0 0 0 0 0 0 0 0 0 0 0 0 0 0 0 0 0 0 0 0 0 0 0 0 0 0 0 0 0 0 0 0 0 0 0 0 0 0 0
Wind_Speed
1 2 4 6 5 5 4 3 4 5 3 1 0 1 1 2 4 1 2 6 10 8 7 7 5 4 4 4 1 3 7 6 6 5 5 5 5 4 6 6 7 7 7 7
1 5 7 4 3 3 3 1 6 6 1 1 2 1 0 2 3 3 3 3 4 4 7 7 5 6 6 4 5 7 8 7 5 5 4 5 4 4 4 5 7 7 7 7
8 8 3 4 3 3 4 4 6 7 0 1 2 1 2 2 3 5 6 6 6 6 8 8 7 9 8 7 8 8 9 9 7 6 6 6 5 4 4 4 4 6 7 7
7 8 5 4 5 6 6 8 8 6 2 4 3 5 4 3 2 4 7 8 8 7 7 10 12 12 10 10 10 11 11 10 8 7 7 6 4 3 3 2 3 4 6 6
9 6 6 7 10 8 8 6 6 4 3 3 3 3 5 1 5 8 9 10 9 8 9 11 13 13 13 12 12 12 13 11 9 8 7 6 6 4 3 2 4 3 3 3
6 4 6 8 7 8 5 2 3 3 2 3 7 7 6 8 12 9 11 11 12 12 12 14 15 15 13 12 11 11 13 12 9 9 8 7 6 4 3 2 1 1 1 2
7 4 3 3 3 2 3 3 2 3 2 7 4 5 9 13 9 14 18 16 13 13 14 16 16 14 11 10 10 9 11 9 6 7 7 5 5 4 2 1 0 0 1 1
7 9 8 8 9 8 6 8 7 5 7 7 2 7 8 5 5 7 15 17 15 14 15 16 15 13 10 9 9 8 9 7 4 5 5 4 3 2 1 1 2 2 2 2
6 10 4 7 6 9 6 6 6 5 2 5 6 5 4 3 3 11 16 18 14 15 16 16 14 10 9 9 7 7 8 5 3 4 4 3 3 3 2 2 3 2 2 2
5 6 5 4 4 2 5 7 4 2 3 6 6 4 7 9 11 14 16 17 15 16 16 14 11 10 9 8 8 8 9 9 7 4 4 4 3 1 0 2 2 3 3 2
2 3 3 3 7 10 4 3 3 4 3 6 8 8 3 7 13 16 14 15 16 17 15 12 9 9 10 9 8 7 5 6 6 4 3 1 1 0 2 3 4 4 3 4
1 3 3 4 2 1 2 4 6 5 4 3 3 5 8 6 9 15 16 16 17 17 14 11 9 6 6 6 5 5 3 3 4 2 1 1 1 1 2 4 5 4 4 5
0 3 2 4 3 6 7 5 3 5 4 2 2 5 9 13 10 10 15 16 16 17 14 10 9 7 4 4 5 2 2 2 2 1 3 3 2 1 3 5 5 5 4 5
2 4 4 4 2 2 4 5 2 2 3 2 2 2 1 6 9 10 14 15 16 15 13 11 8 6 5 5 4 3 2 2 2 2 3 3 3 3 4 5 5 5 5 7
4 3 1 2 2 0 2 4 5 4 3 4 4 6 9 13 14 14 15 16 16 14 12 10 7 6 6 5 4 4 3 2 1 2 4 4 4 5 6 6 5 5 6 8
3 1 0 2 1 2 4 8 7 7 5 5 3 5 3 7 9 13 16 18 18 16 14 12 9 6 5 5 4 3 3 3 3 5 5 4 5 6 7 7 5 5 7 7
2 1 1 3 3 7 8 5 5 5 3 3 5 4 7 7 9 8 10 12 14 14 14 12 11 8 6 4 3 4 3 3 4 5 5 4 5 7 7 7 6 5 6 6
2 2 2 2 1 6 8 2 3 4 4 1 2 2 5 9 9 9 6 8 10 12 12 11 8 6 5 3 3 2 2 4 4 4 5 5 5 5 4 4 5 5 5 5
2 4 2 1 3 7 8 4 2 2 4 3 6 9 12 14 15 11 9 9 8 9 8 7 7 5 5 5 3 2 2 3 4 5 5 5 4 3 5 5 5 5 4 4
4 2 2 3 3 5 4 5 5 3 4 0 8 13 14 11 7 6 9 13 13 10 6 5 6 3 5 4 2 1 2 3 4 4 3 3 4 6 6 5 4 4 4 4
3 3 1 2 4 6 5 10 6 1 6 6 3 12 13 5 8 13 13 14 12 10 7 3 5 6 4 3 2 0 2 3 3 2 4 6 6 6 5 4 4 4 5 6
0 1 0 1 3 5 4 7 2 3 4 1 2 4 10 14 15 16 14 13 11 9 9 6 5 4 2 2 1 1 3 3 2 5 6 5 5 5 4 4 4 5 5 7
1 2 2 4 7 4 2 5 5 4 4 4 5 9 14 15 14 13 12 11 9 8 6 4 5 3 2 1 1 2 3 3 5 6 6 4 5 5 4 4 4 4 5 6
2 1 2 5 7 6 8 10 5 3 6 6 6 10 12 13 13 12 9 8 7 5 4 4 4 2 1 1 1 1 2 5 6 6 5 5 5 5 5 4 4 4 5 6
3 1 4 8 11 12 9 7 3 6 9 12 11 9 10 12 10 9 8 7 6 4 3 4 4 3 0 2 2 2 4 6 7 6 6 4 5 5 5 5 4 4 3 4
5 7 6 8 6 2 3 3 7 13 15 16 14 10 8 8 8 9 7 5 5 4 4 4 4 2 2 3 4 4 5 6 7 6 4 4 4 5 5 5 5 4 3 4
Wind_Direction
140 130 212 213 190 177 172 208 259 263 246 272 131 329 4 131 126 198 249 197 184 165 125 116 127 94 53 38 68 102 100 94 98 95 89 83 74 62 60 54 47 46 46 41
8 248 232 199 187 162 159 229 278 286 263 132 133 147 78 103 126 151 170 210 201 140 119 117 106 67 59 63 72 74 72 73 66 75 82 88 87 75 67 53 41 41 48 45
190 241 182 168 189 175 191 189 242 255 96 179 129 282 206 141 132 132 132 143 152 165 148 126 96 87 83 67 59 61 59 63 58 66 83 84 81 67 43 36 36 38 55 56
212 231 191 198 218 184 235 218 230 254 159 244 187 258 250 179 164 162 154 151 159 153 135 120 112 100 90 83 75 69 62 56 54 58 75 75 74 86 66 66 80 55 48 48
219 186 183 200 225 173 229 203 201 227 196 233 228 201 262 154 229 208 177 159 152 143 137 119 111 99 86 76 71 70 68 58 51 56 71 82 85 84 90 81 83 73 53 44
232 195 178 210 217 175 220 106 52 48 81 243 226 203 241 208 211 181 173 162 141 130 128 112 100 93 83 76 73 68 66 51 45 54 61 76 87 83 82 78 76 43 12 10
253 239 211 181 205 164 129 107 358 322 253 248 208 165 239 227 208 181 168 157 143 132 124 116 109 101 97 91 85 80 82 72 63 72 74 81 92 99 113 146 142 184 286 300
207 243 210 199 185 176 170 153 175 219 267 285 177 211 242 255 257 176 158 141 140 137 128 124 123 125 122 108 96 97 100 98 98 99 98 97 105 125 146 210 212 211 222 240
197 243 220 194 178 152 158 174 179 159 256 268 259 269 277 355 94 147 149 141 149 139 130 130 133 132 124 115 114 120 118 130 138 122 125 139 152 156 151 212 231 234 241 242
201 247 228 187 129 143 152 153 139 169 184 254 258 243 232 203 179 167 160 153 145 131 130 135 142 137 129 134 146 148 162 166 155 161 157 163 136 119 199 277 284 268 261 260
131 185 271 145 174 192 147 149 147 159 185 214 243 248 250 238 183 172 165 154 143 135 142 142 145 143 144 150 146 138 162 144 147 161 181 113 55 286 274 270 272 274 298 303
82 131 232 235 272 353 121 139 134 157 212 180 192 265 340 291 161 157 154 148 139 138 145 144 138 136 143 136 127 127 158 135 131 171 197 236 289 358 303 275 271 277 288 289
84 95 10 335 357 19 34 19 63 98 88 137 197 283 11 50 82 127 136 140 140 143 146 142 141 143 129 89 77 72 101 147 177 215 254 272 303 303 270 275 287 295 290 285
89 106 139 176 214 321 327 335 339 104 109 123 222 268 49 86 114 135 143 146 149 152 152 154 151 129 103 102 133 170 179 214 218 250 283 291 281 267 267 275 280 282 274 267
70 119 172 209 225 338 284 300 295 271 187 187 207 204 203 180 169 164 152 150 151 150 151 146 140 129 135 153 184 172 183 220 243 262 259 259 269 274 272 272 287 304 282 265
29 117 112 282 280 325 277 277 266 255 232 236 232 251 194 156 158 164 163 160 157 154 154 149 140 147 160 168 179 178 206 242 248 246 248 263 283 290 294 302 310 303 296 297
346 114 107 276 308 338 295 242 220 232 233 174 206 236 141 161 169 173 162 161 154 152 150 142 143 165 169 166 169 174 217 261 259 257 277 290 297 294 293 307 319 319 327 2
156 125 167 249 324 249 254 251 235 254 262 301 317 100 109 104 89 73 92 135 149 144 135 137 146 150 139 151 163 180 237 260 274 284 296 302 300 303 329 3 11 17 26 30
140 160 168 192 222 276 301 329 352 326 275 178 138 117 107 108 88 59 67 85 90 102 116 132 130 138 144 155 174 227 278 292 296 306 313 321 337 3 34 40 33 28 18 13
47 60 135 163 216 247 275 320 333 336 290 266 142 146 147 136 130 125 102 94 85 74 65 92 110 134 144 171 184 248 289 307 321 322 335 17 50 64 61 49 43 29 19 5
9 23 99 177 233 266 299 303 318 251 293 320 167 159 160 139 130 131 121 111 114 118 120 161 145 146 159 177 193 223 313 324 313 350 84 78 73 76 72 59 48 31 18 4
333 32 252 148 241 261 349 342 353 266 275 272 120 139 126 126 128 132 131 130 133 143 149 177 137 130 168 205 160 29 343 334 42 83 83 78 73 68 60 58 47 35 23 7
223 200 217 223 239 250 259 252 261 241 210 153 147 145 140 137 133 130 127 134 144 153 140 142 134 156 216 239 94 20 351 53 90 86 82 76 59 45 38 36 20 8 4 2
268 226 248 275 270 270 281 270 252 196 167 137 135 135 130 125 124 126 125 126 120 124 142 145 138 118 25 26 73 322 49 96 96 91 80 57 38 24 18 9 359 351 352 358
241 222 234 253 279 293 304 301 225 135 119 108 103 105 116 123 118 117 118 124 123 132 130 127 129 132 254 7 18 64 112 105 96 90 73 51 35 29 16 5 355 356 8 20
209 206 205 245 234 239 309 22 115 124 122 118 116 114 111 118 113 110 115 118 119 124 114 108 96 86 42 58 82 95 101 108 106 93 75 53 40 29 21 9 359 356 357 354